Tracking 25648 objects as of 18-May-2022
HD Live streaming from Space Station
objects crossing your sky now

SL-12 R/B(2)

Track SL-12 R/B(2) now!


NORAD ID: 16797
Int'l Code: 1986-044F
Perigee: 36,488.9 km
Apogee: 36,590.5 km
Inclination: 13.6 °
Period: 1,474.4 minutes
Semi major axis: 42910 km
RCS: 2.4859 m2 (large)
Launch date: June 10, 1986
Source: Commonwealth of Independent States (former USSR) (CIS)
Launch site: TYURATAM MISSILE AND SPACE COMPLEX (TTMTR)

Note: This is a ROCKET BODY
aabbcc
Your satellite tracking list
Your tracking list is empty




NASA's NSSDC Master Catalog

Two Line Element Set (TLE):
1 16797U 86044F   22137.52609580 -.00000053  00000-0  00000-0 0  9991
2 16797  13.6021 335.6691 0011832 147.0558 189.6823  0.97668568128275
Source of the keplerian elements: AFSPC